Location: Montreal
(45.5087°N, 73.5540°W)
Time: 06:44:44
(UTC-04:00)

Amateur Radio Satellites - All Passes

Search period start: 30 March 2017 06:14
Search period end: 31 March 2017 06:14
Location: Montreal, 45.5087°N, 73.5540°W

Satellite Date Start Highest point End Downlink Frequencies (MHz)
Time Altitude Azimuth
XW-2D 30 Mar 06:16:15 06:18:56 18° 93° (E) 06:21:35 145.860 - 145.880
AO-85 30 Mar 06:18:06 06:20:19 15° 248° (WSW) 06:22:35 145.980
XW-2B 30 Mar 06:22:08 06:25:01 21° 94° (E) 06:27:53 145.730 - 145.750
CUTE-I 30 Mar 06:25:36 06:30:00 25° 93° (E) 06:34:21 437.470
XW-2C 30 Mar 06:32:14 06:35:29 27° 96° (E) 06:38:42 145.795 - 145.815
M-CUBED/EXP-1 PRIME 30 Mar 06:36:58 06:40:41 48° 256° (WSW) 06:44:44 437.505
BEESAT 2 30 Mar 06:38:32 06:42:31 51° 50° (NE) 06:46:28 435.950
STRAND 1 30 Mar 06:40:07 06:44:50 38° 67° (ENE) 06:49:34 437.568
DOVE 4 30 Mar 06:54:12 06:59:32 72° 101° (ESE) 07:04:42 437.250
HO-68 30 Mar 07:19:10 07:24:31 22° 91° (E) 07:29:49 435.675
XW-2F 30 Mar 07:20:56 07:24:42 79° 284° (WNW) 07:28:25 145.980 - 146.000
LilacSat-2 30 Mar 07:29:46 07:33:28 57° 286° (WNW) 07:37:10 437.200
NO-84 30 Mar 07:32:08 07:34:39 28° 335° (NNW) 07:37:12 435.350 FM
AO-7 30 Mar 07:32:53 07:37:31 16° 319° (NW) 07:42:10 .
NUDT-PHONESAT 30 Mar 07:34:23 07:38:03 65° 285° (WNW) 07:41:41 437.300
KAITUO 1B 30 Mar 07:47:00 07:50:33 45° 287° (WNW) 07:54:05 145.475/437.950
YUBILEINY 30 Mar 07:49:42 07:58:26 82° 96° (E) 08:07:11 435.215
XW-2D 30 Mar 07:49:49 07:53:14 34° 290° (WNW) 07:56:37 145.860 - 145.880
BEESAT 3 30 Mar 07:53:07 07:55:05 13° 250° (WSW) 07:57:00 437.485
XW-2B 30 Mar 07:55:57 07:59:16 30° 290° (WNW) 08:02:33 145.730 - 145.750
UWE-3 30 Mar 08:03:39 08:04:35 11° 87° (E) 08:05:30 435.000/436.395/437.385
SEEDS 30 Mar 08:04:03 08:07:35 26° 95° (E) 08:11:06 437.485
CUTE-I 30 Mar 08:05:08 08:10:16 47° 291° (WNW) 08:15:21 437.470
XW-2C 30 Mar 08:06:34 08:09:35 23° 293° (WNW) 08:12:34 145.795 - 145.815
XW-2A 30 Mar 08:15:30 08:18:53 65° 102° (ESE) 08:22:12 145.665 - 145.685
BEESAT 2 30 Mar 08:17:09 08:19:57 18° 248° (WSW) 08:22:43 435.950
CUTE 1.7 + AOD 2 30 Mar 08:18:20 08:22:30 55° 100° (E) 08:26:39 437.475
STRAND 1 30 Mar 08:19:34 08:24:04 30° 265° (W) 08:28:35 437.568
DOVE 4 30 Mar 08:33:02 08:36:36 19° 300° (WNW) 08:40:07 437.250
ZACube-1 30 Mar 08:34:04 08:36:08 13° 89° (E) 08:38:11 437.345
PCSat 30 Mar 08:35:56 08:40:40 32° 111° (ESE) 08:45:26 145.827
CUBEBUG 2 30 Mar 08:43:26 08:47:41 47° 98° (E) 08:51:46 437.445
AO-73 30 Mar 08:59:01 09:02:19 22° 93° (E) 09:05:35 145.935
HO-68 30 Mar 09:05:46 09:12:56 77° 290° (WNW) 09:20:06 435.675
AAUSAT CUBESAT 2 30 Mar 09:11:10 09:15:19 68° 101° (E) 09:19:27 437.432
NO-84 30 Mar 09:11:26 09:12:57 13° 357° (N) 09:14:28 435.350 FM
PRISM 30 Mar 09:23:31 09:27:32 61° 73° (ENE) 09:31:36 437.425
FO-29 30 Mar 09:35:37 09:42:41 42° 66° (ENE) 09:49:13 435.910
UWE-3 30 Mar 09:37:19 09:41:38 75° 285° (WNW) 09:45:47 435.000/436.395/437.385
SEEDS 30 Mar 09:39:35 09:43:16 31° 292° (WNW) 09:46:58 437.485
TIGRISAT 30 Mar 09:40:42 09:45:10 46° 71° (ENE) 09:49:35 435.000
YUBILEINY 30 Mar 09:49:32 09:56:20 25° 299° (WNW) 10:03:10 435.215
UNISAT 6 30 Mar 09:51:59 09:56:37 64° 73° (ENE) 10:01:12 437.425
Oscar 11 30 Mar 09:53:17 09:57:36 75° 102° (ESE) 10:01:54 .
DELFI C3 30 Mar 09:53:57 09:57:11 23° 94° (E) 10:00:23 145.870
CUTE 1.7 + AOD 2 30 Mar 09:55:20 09:57:55 16° 297° (WNW) 10:00:30 437.475
ZACube-1 30 Mar 10:08:41 10:12:50 58° 287° (WNW) 10:16:54 437.345
PCSat 30 Mar 10:18:45 10:23:55 44° 310° (NW) 10:29:08 145.827
CUBEBUG 2 30 Mar 10:20:52 10:23:56 19° 297° (WNW) 10:26:56 437.445
RS-15 30 Mar 10:23:32 10:30:12 17° 94° (E) 10:36:56 29.354- 29.394
AO-73 30 Mar 10:34:51 10:38:40 34° 291° (WNW) 10:42:24 145.935
AAUSAT CUBESAT 2 30 Mar 10:48:18 10:50:15 13° 299° (WNW) 10:52:12 437.432
NO-84 30 Mar 10:49:08 10:51:22 19° 18° (NNE) 10:53:41 435.350 FM
HO-68 30 Mar 10:55:02 10:59:35 18° 310° (NW) 11:04:07 435.675
NANOSAT C BR1 30 Mar 10:59:38 11:03:11 26° 67° (ENE) 11:06:46 145.865
PRISM 30 Mar 11:01:27 11:03:13 12° 270° (W) 11:05:00 437.425
EO-79 30 Mar 11:06:37 11:10:27 33° 69° (ENE) 11:14:18 145.935-145.965
ESTCUBE 1 30 Mar 11:16:10 11:18:35 14° 89° (E) 11:21:00 437.505/2401.250
TIGRISAT 30 Mar 11:18:31 11:22:02 21° 268° (W) 11:25:33 435.000
FO-29 30 Mar 11:20:14 11:27:36 46° 262° (W) 11:34:28 435.910
AIST 2D 30 Mar 11:22:57 11:26:29 83° 77° (ENE) 11:30:01 435.315
DELFI C3 30 Mar 11:28:27 11:32:00 31° 291° (WNW) 11:35:32 145.870
UNISAT 6 30 Mar 11:30:59 11:33:42 15° 270° (W) 11:36:25 437.425
Oscar 11 30 Mar 11:31:12 11:33:09 13° 300° (WNW) 11:35:06 .
POLYITAN 1 30 Mar 11:35:36 11:39:51 67° 74° (ENE) 11:44:07 437.675
QB50P2 30 Mar 11:40:25 11:44:42 81° 73° (ENE) 11:49:00 145.880/145.840
BUGSAT 1 30 Mar 11:45:33 11:49:04 26° 66° (ENE) 11:52:36 437.445
LO-87 30 Mar 11:45:36 11:49:10 50° 99° (E) 11:52:43 145.935 - 145.965
DUCHIFAT 1 30 Mar 11:45:58 11:50:12 72° 74° (ENE) 11:54:28 145.980
Oscar 19 30 Mar 11:54:32 11:57:17 15° 57° (ENE) 12:00:03 437.125/150
PCSat 30 Mar 12:06:30 12:08:47 12° 333° (NNW) 12:11:03 145.827
VELOX 1 30 Mar 12:09:54 12:12:37 16° 91° (E) 12:15:19 145.980
SPROUT 30 Mar 12:21:40 12:24:36 18° 92° (E) 12:27:32 437.525
NO-84 30 Mar 12:26:11 12:29:13 90° 260° (W) 12:32:29 435.350 FM
RS-15 30 Mar 12:28:18 12:40:08 68° 117° (ESE) 12:52:21 29.354- 29.394
NANOSAT C BR1 30 Mar 12:34:59 12:38:47 31° 263° (W) 12:42:37 145.865
Gurwin Techsat 1B 30 Mar 12:41:37 12:45:42 23° 61° (ENE) 12:49:47 435.225
EO-79 30 Mar 12:42:44 12:46:15 25° 266° (W) 12:49:47 145.935-145.965
ESTCUBE 1 30 Mar 12:51:21 12:55:49 64° 287° (WNW) 13:00:17 437.505/2401.250
AO-7 30 Mar 12:59:17 13:03:55 16° 41° (NE) 13:08:33 .
DX 1 30 Mar 13:08:12 13:11:52 25° 95° (E) 13:15:30 434.975-435.025
SO-50 30 Mar 13:12:39 13:15:46 18° 111° (ESE) 13:18:52 436.795
POLYITAN 1 30 Mar 13:14:14 13:16:05 12° 271° (W) 13:17:55 437.675
LO-87 30 Mar 13:20:27 13:22:12 13° 297° (WNW) 13:23:58 145.935 - 145.965
BUGSAT 1 30 Mar 13:20:29 13:24:18 32° 263° (W) 13:28:09 437.445
QB50P2 30 Mar 13:20:37 13:21:03 10° 272° (W) 13:21:29 145.880/145.840
DUCHIFAT 1 30 Mar 13:24:55 13:26:21 11° 271° (W) 13:27:48 145.980
Oscar 19 30 Mar 13:30:46 13:35:53 87° 260° (W) 13:41:04 437.125/150
UKube-1 30 Mar 13:39:11 13:43:14 37° 98° (E) 13:47:15 .
VELOX 1 30 Mar 13:45:02 13:49:26 57° 288° (WNW) 13:53:48 145.980
ITAMSAT 1 30 Mar 13:50:13 13:53:34 17° 58° (ENE) 13:56:56 435.822/435.867
50 SAT 30 Mar 13:52:04 13:55:32 58° 286° (WNW) 13:58:59 437.505
SPROUT 30 Mar 13:56:39 14:00:46 46° 289° (WNW) 14:04:50 437.525
NO-84 30 Mar 14:05:34 14:06:22 11° 232° (SW) 14:07:13 435.350 FM
Gurwin Techsat 1B 30 Mar 14:20:02 14:25:15 56° 259° (W) 14:30:31 435.225
RS-15 30 Mar 14:41:41 14:53:24 50° 323° (NW) 15:05:21 29.354- 29.394
DX 1 30 Mar 14:44:06 14:48:05 34° 292° (WNW) 14:52:02 434.975-435.025
AO-7 30 Mar 14:46:56 14:55:01 59° 63° (ENE) 15:03:07 .
SO-50 30 Mar 14:51:11 14:55:47 63° 309° (NW) 15:00:20 436.795
MOZHAYETS 4 30 Mar 15:05:25 15:06:19 10° 87° (E) 15:07:12
Oscar 19 30 Mar 15:14:20 15:15:57 11° 273° (W) 15:17:35 437.125/150
UKube-1 30 Mar 15:15:37 15:19:04 23° 295° (WNW) 15:22:31 .
BEESAT 30 Mar 15:24:45 15:29:13 38° 98° (E) 15:33:38 436.000
ITAMSAT 1 30 Mar 15:27:12 15:32:26 76° 257° (WSW) 15:37:41 435.822/435.867
PCSat 30 Mar 15:38:58 15:41:13 12° 27° (NNE) 15:43:28 145.827
O/OREOS (USA 219) 30 Mar 15:40:36 15:44:06 22° 102° (ESE) 15:47:38 437.305
ITUPSAT 1 30 Mar 15:43:52 15:48:35 57° 101° (E) 15:53:15 437.325
DOVE 4 30 Mar 16:26:57 16:29:14 13° 56° (ENE) 16:31:34 437.250
SO-50 30 Mar 16:34:32 16:37:08 15° 330° (NNW) 16:39:43 436.795
MOZHAYETS 4 30 Mar 16:39:31 16:44:05 86° 290° (WNW) 16:48:40
AO-7 30 Mar 16:40:42 16:48:08 35° 263° (W) 16:55:37 .
RS-15 30 Mar 16:59:16 17:09:49 31° 356° (N) 17:20:19 29.354- 29.394
XW-2D 30 Mar 17:00:31 17:02:29 14° 63° (ENE) 17:04:27 145.860 - 145.880
BEESAT 30 Mar 17:02:52 17:06:50 27° 296° (WNW) 17:10:46 436.000
XW-2B 30 Mar 17:06:15 17:08:30 15° 64° (ENE) 17:10:46 145.730 - 145.750
XW-2C 30 Mar 17:16:03 17:18:49 20° 66° (ENE) 17:21:35 145.795 - 145.815
O/OREOS (USA 219) 30 Mar 17:18:55 17:23:14 42° 301° (WNW) 17:27:37 437.305
PCSat 30 Mar 17:20:52 17:26:06 44° 50° (NE) 17:31:16 145.827
ITUPSAT 1 30 Mar 17:22:40 17:25:59 19° 299° (WNW) 17:29:18 437.325
KKS-1 30 Mar 17:24:47 17:29:15 60° 101° (E) 17:33:40 437.445
CUBESAT XI-V 30 Mar 17:43:41 17:48:21 77° 102° (ESE) 17:53:02 437.345
STARS 30 Mar 17:48:18 17:52:35 47° 99° (E) 17:56:50 437.465
CUTE-I 30 Mar 17:49:16 17:54:27 51° 70° (ENE) 17:59:40 437.470
HO-68 30 Mar 17:51:00 17:56:18 23° 54° (NE) 18:01:36 435.675
YUBILEINY 30 Mar 17:57:13 18:05:32 46° 72° (ENE) 18:13:49 435.215
DOVE 4 30 Mar 18:01:13 18:06:02 86° 75° (ENE) 18:11:12 437.250
XW-2F 30 Mar 18:03:34 18:07:18 65° 75° (ENE) 18:11:03 145.980 - 146.000
LilacSat-2 30 Mar 18:13:13 18:17:03 88° 269° (W) 18:20:52 437.200
NUDT-PHONESAT 30 Mar 18:15:24 18:19:07 75° 75° (ENE) 18:22:51 437.300
M-CUBED/EXP-1 PRIME 30 Mar 18:15:51 18:16:41 10° 92° (E) 18:17:30 437.505
MOZHAYETS 4 30 Mar 18:19:08 18:20:31 11° 303° (WNW) 18:21:54
KAITUO 1B 30 Mar 18:28:36 18:32:21 75° 259° (W) 18:36:05 145.475/437.950
XW-2D 30 Mar 18:32:34 18:36:16 52° 260° (W) 18:39:59 145.860 - 145.880
XW-2B 30 Mar 18:38:42 18:42:22 45° 261° (W) 18:46:01 145.730 - 145.750
XW-2A 30 Mar 18:48:57 18:51:59 30° 70° (ENE) 18:55:03 145.665 - 145.685
XW-2C 30 Mar 18:49:20 18:52:49 34° 263° (W) 18:56:18 145.795 - 145.815
AO-85 30 Mar 18:56:37 18:57:09 10° 109° (ESE) 18:57:41 145.980
SEEDS 30 Mar 18:57:57 19:01:17 24° 66° (ENE) 19:04:37 437.485
UWE-3 30 Mar 19:01:50 19:04:18 14° 61° (ENE) 19:06:45 435.000/436.395/437.385
KKS-1 30 Mar 19:02:31 19:05:20 17° 299° (WNW) 19:08:09 437.445
Tancredo 1 30 Mar 19:04:25 19:06:55 22° 138° (SE) 19:09:26 437.200
PCSat 30 Mar 19:04:34 19:09:21 32° 249° (WSW) 19:14:06 145.827
CUTE 1.7 + AOD 2 30 Mar 19:12:49 19:16:52 50° 72° (ENE) 19:20:57 437.475
RS-15 30 Mar 19:15:02 19:26:39 43° 30° (NNE) 19:37:53 29.354- 29.394
CUBESAT XI-V 30 Mar 19:22:40 19:25:08 14° 300° (WNW) 19:27:35 437.345
STARS 30 Mar 19:25:24 19:28:36 20° 297° (WNW) 19:31:46 437.465
ISS 30 Mar 19:25:25 19:28:19 30° 140° (SE) 19:31:13 437.550
CUTE-I 30 Mar 19:30:30 19:34:46 24° 267° (W) 19:39:03 437.470
ZACube-1 30 Mar 19:31:40 19:34:29 17° 62° (ENE) 19:37:16 437.345
HO-68 30 Mar 19:36:04 19:43:14 84° 254° (WSW) 19:50:26 435.675
XW-2F 30 Mar 19:41:41 19:41:52 10° 271° (W) 19:42:03 145.980 - 146.000
DOVE 4 30 Mar 19:42:30 19:44:29 12° 275° (W) 19:46:30 437.250
CUBEBUG 2 30 Mar 19:42:47 19:47:24 53° 72° (ENE) 19:51:57 437.445
M-CUBED/EXP-1 PRIME 30 Mar 19:47:01 19:51:44 84° 109° (ESE) 19:56:23 437.505
YUBILEINY 30 Mar 19:54:15 20:02:17 44° 273° (W) 20:10:20 435.215
AO-73 30 Mar 19:56:16 19:59:56 25° 67° (ENE) 20:03:33 145.935
AAUSAT CUBESAT 2 30 Mar 20:03:03 20:07:04 57° 74° (ENE) 20:11:07 437.432
XW-2A 30 Mar 20:22:27 20:24:50 17° 267° (W) 20:27:13 145.665 - 145.685
STRAND 1 30 Mar 20:26:51 20:31:59 78° 103° (ESE) 20:37:05 437.568
AO-85 30 Mar 20:32:35 20:36:58 89° 122° (ESE) 20:41:05 145.980
SEEDS 30 Mar 20:33:04 20:36:50 33° 264° (W) 20:40:37 437.485
UWE-3 30 Mar 20:35:34 20:40:13 74° 258° (WSW) 20:44:47 435.000/436.395/437.385
Tancredo 1 30 Mar 20:39:41 20:42:48 60° 336° (NNW) 20:45:56 437.200
DELFI C3 30 Mar 20:41:59 20:44:44 19° 65° (ENE) 20:47:29 145.870
Oscar 11 30 Mar 20:49:46 20:54:03 74° 75° (ENE) 20:58:22 .
CUTE 1.7 + AOD 2 30 Mar 20:50:27 20:53:01 16° 270° (W) 20:55:34 437.475
ISS 30 Mar 21:01:30 21:04:41 49° 338° (NNW) 21:07:53 437.550
ZACube-1 30 Mar 21:05:51 21:10:19 60° 259° (W) 21:14:44 437.345
CUBEBUG 2 30 Mar 21:20:57 21:24:17 19° 269° (W) 21:27:35 437.445
M-CUBED/EXP-1 PRIME 30 Mar 21:22:53 21:25:31 15° 306° (NW) 21:28:11 437.505
HO-68 30 Mar 21:27:51 21:31:59 16° 273° (W) 21:36:09 435.675
RS-15 30 Mar 21:28:13 21:40:35 83° 238° (WSW) 21:52:22 29.354- 29.394
AO-73 30 Mar 21:31:53 21:36:01 35° 263° (W) 21:40:06 145.935
SO-50 30 Mar 21:40:18 21:44:23 33° 43° (NE) 21:48:27 436.795
AAUSAT CUBESAT 2 30 Mar 21:40:55 21:42:54 13° 270° (W) 21:44:54 437.432
BEESAT 3 30 Mar 21:42:47 21:46:38 56° 121° (ESE) 21:50:33 437.485
UNISAT 6 30 Mar 21:44:18 21:45:12 11° 87° (E) 21:46:07 437.425
STRAND 1 30 Mar 22:07:27 22:10:32 16° 302° (WNW) 22:13:36 437.568
BEESAT 2 30 Mar 22:09:11 22:12:55 42° 119° (ESE) 22:16:44 435.950
AO-85 30 Mar 22:15:19 22:17:53 16° 324° (NW) 22:20:24 145.980
DELFI C3 30 Mar 22:15:34 22:19:15 39° 262° (W) 22:22:58 145.870
Tancredo 1 30 Mar 22:16:35 22:19:19 26° 355° (N) 22:22:04 437.200
ESTCUBE 1 30 Mar 22:17:44 22:20:45 18° 62° (ENE) 22:23:47 437.505/2401.250
LO-87 30 Mar 22:23:54 22:27:02 29° 69° (ENE) 22:30:13 145.935 - 145.965
FO-29 30 Mar 22:28:58 22:33:24 22° 90° (E) 22:37:32 435.910
Oscar 11 30 Mar 22:29:19 22:30:42 11° 272° (W) 22:32:06 .
PRISM 30 Mar 22:37:33 22:41:45 74° 103° (ESE) 22:45:54 437.425
ISS 30 Mar 22:38:47 22:41:39 27° 358° (N) 22:44:30 437.550
TIGRISAT 30 Mar 23:06:26 23:10:50 73° 102° (ESE) 23:15:06 435.000
VELOX 1 30 Mar 23:09:12 23:12:19 19° 63° (ENE) 23:15:29 145.980
SPROUT 30 Mar 23:17:12 23:20:15 19° 64° (ENE) 23:23:20 437.525
UNISAT 6 30 Mar 23:18:07 23:22:32 79° 285° (WNW) 23:26:49 437.425
SO-50 30 Mar 23:20:45 23:24:53 36° 243° (WSW) 23:28:59 436.795
BEESAT 3 30 Mar 23:21:32 23:24:33 20° 321° (NW) 23:27:36 437.485
QB50P2 30 Mar 23:25:23 23:26:39 11° 88° (E) 23:27:54 145.880/145.840
RS-15 30 Mar 23:42:29 23:51:07 24° 261° (W) 23:59:32 29.354- 29.394
BEESAT 2 30 Mar 23:47:32 23:50:51 24° 318° (NW) 23:54:12 435.950
ESTCUBE 1 30 Mar 23:52:47 23:57:09 54° 260° (W) 00:01:34 437.505/2401.250
Tancredo 1 30 Mar 23:53:01 23:55:59 34° 15° (NNE) 23:58:56 437.200
LO-87 30 Mar 23:57:46 00:00:31 20° 266° (W) 00:03:18 145.935 - 145.965
DX 1 31 Mar 00:05:39 00:09:26 30° 67° (ENE) 00:13:14 434.975-435.025
O/OREOS (USA 219) 31 Mar 00:10:23 00:11:22 11° 43° (NE) 00:12:20 437.305
FO-29 31 Mar 00:13:15 00:19:00 54° 291° (WNW) 00:24:12 435.910
PRISM 31 Mar 00:14:40 00:16:27 13° 300° (WNW) 00:18:14 437.425
ISS 31 Mar 00:15:30 00:18:39 41° 19° (NNE) 00:21:48 437.550
NANOSAT C BR1 31 Mar 00:16:39 00:20:30 33° 97° (E) 00:24:18 145.865
AIST 2D 31 Mar 00:19:02 00:22:32 75° 102° (ESE) 00:26:00 435.315
EO-79 31 Mar 00:24:13 00:28:18 44° 99° (E) 00:32:18 145.935-145.965
50 SAT 31 Mar 00:27:10 00:30:35 72° 75° (ENE) 00:34:03 437.505
UKube-1 31 Mar 00:35:29 00:39:33 42° 70° (ENE) 00:43:38 .
VELOX 1 31 Mar 00:44:10 00:48:26 49° 260° (W) 00:52:46 145.980
TIGRISAT 31 Mar 00:44:49 00:46:55 13° 301° (WNW) 00:48:59 435.000
SPROUT 31 Mar 00:51:43 00:55:51 46° 261° (W) 01:00:02 437.525
POLYITAN 1 31 Mar 00:53:48 00:58:04 88° 279° (W) 01:02:15 437.675
QB50P2 31 Mar 00:58:42 01:02:57 73° 286° (WNW) 01:07:09 145.880/145.840
BUGSAT 1 31 Mar 00:59:48 01:03:29 30° 96° (E) 01:07:06 437.445
DUCHIFAT 1 31 Mar 01:03:13 01:07:27 84° 286° (WNW) 01:11:38 145.980
ITUPSAT 1 31 Mar 01:18:18 01:20:13 12° 57° (ENE) 01:22:08 437.325
Tancredo 1 31 Mar 01:29:05 01:32:13 56° 214° (SW) 01:35:20 437.200
Oscar 19 31 Mar 01:40:24 01:44:49 28° 95° (E) 01:49:13 437.125/150
DX 1 31 Mar 01:41:46 01:45:34 29° 264° (W) 01:49:24 434.975-435.025
O/OREOS (USA 219) 31 Mar 01:47:09 01:51:45 64° 63° (ENE) 01:56:19 437.305
ISS 31 Mar 01:52:01 01:55:09 41° 216° (SW) 01:58:16 437.550
NANOSAT C BR1 31 Mar 01:52:38 01:56:04 24° 294° (WNW) 01:59:27 145.865
EO-79 31 Mar 02:00:43 02:03:46 19° 296° (WNW) 02:06:46 145.935-145.965
MOZHAYETS 4 31 Mar 02:08:37 02:11:11 15° 60° (ENE) 02:13:44
UKube-1 31 Mar 02:12:34 02:15:46 20° 267° (W) 02:18:58 .
POLYITAN 1 31 Mar 02:32:31 02:33:08 10° 302° (WNW) 02:33:45 437.675
BEESAT 31 Mar 02:32:59 02:37:40 57° 71° (ENE) 02:42:22 436.000
Gurwin Techsat 1B 31 Mar 02:33:51 02:39:01 48° 99° (E) 02:44:08 435.225
BUGSAT 1 31 Mar 02:35:16 02:38:45 26° 294° (WNW) 02:42:11 437.445
AO-7 31 Mar 02:48:23 02:52:21 14° 86° (E) 02:56:17 .
ITUPSAT 1 31 Mar 02:52:30 02:57:18 86° 73° (ENE) 03:02:07 437.325
CUBESAT XI-V 31 Mar 03:14:52 03:16:46 12° 58° (ENE) 03:18:41 437.345
Oscar 19 31 Mar 03:19:24 03:24:15 41° 292° (WNW) 03:29:06 437.125/150
AO-85 31 Mar 03:22:00 03:24:56 20° 39° (NE) 03:27:52 145.980
O/OREOS (USA 219) 31 Mar 03:28:00 03:30:37 15° 261° (W) 03:33:13 437.305
ITAMSAT 1 31 Mar 03:38:05 03:42:44 32° 96° (E) 03:47:19 435.822/435.867
MOZHAYETS 4 31 Mar 03:43:12 03:47:47 71° 258° (WSW) 03:52:22
BEESAT 31 Mar 04:12:38 04:15:49 18° 269° (W) 04:19:00 436.000
Gurwin Techsat 1B 31 Mar 04:14:20 04:18:41 26° 297° (WNW) 04:23:00 435.225
BEESAT 3 31 Mar 04:21:15 04:23:10 13° 32° (NNE) 04:25:04 437.485
KKS-1 31 Mar 04:24:34 04:29:01 73° 74° (ENE) 04:33:31 437.445
ITUPSAT 1 31 Mar 04:34:10 04:35:45 11° 272° (W) 04:37:21 437.325
AO-7 31 Mar 04:38:18 04:46:36 70° 106° (ESE) 04:54:51 .
STARS 31 Mar 04:46:36 04:50:56 56° 72° (ENE) 04:55:17 437.465
BEESAT 2 31 Mar 04:48:35 04:49:56 11° 30° (NNE) 04:51:16 435.950
CUBESAT XI-V 31 Mar 04:48:51 04:53:27 87° 254° (WSW) 04:58:04 437.345
AO-85 31 Mar 05:01:46 05:05:37 55° 238° (WSW) 05:09:33 145.980
M-CUBED/EXP-1 PRIME 31 Mar 05:02:20 05:04:56 17° 55° (NE) 05:07:40 437.505
ITAMSAT 1 31 Mar 05:17:29 05:22:12 36° 294° (WNW) 05:26:54 435.822/435.867
NO-84 31 Mar 05:23:32 05:26:03 27° 135° (SE) 05:28:32 435.350 FM
BEESAT 3 31 Mar 05:57:29 06:01:31 68° 52° (NE) 06:05:30 437.485
DOVE 4 31 Mar 05:58:25 06:02:37 23° 91° (E) 06:06:42 437.250
XW-2D 31 Mar 06:04:13 06:06:07 13° 91° (E) 06:07:59 145.860 - 145.880
KKS-1 31 Mar 06:04:13 06:06:06 12° 271° (W) 06:07:58 437.445
CUTE-I 31 Mar 06:05:10 06:08:31 17° 90° (E) 06:11:51 437.470
XW-2B 31 Mar 06:10:00 06:12:14 15° 91° (E) 06:14:28 145.730 - 145.750
